Regional Weather Roundup
Issued by NWS

Home | Current Version | Previous Version | Text Only | Print | Product List | Glossary On
Versions: 1 2 3 4 5 6 7 8 9 10 11 12 13 14 15 16 17 18 19 20 21 22 23 24 25 26 27
000
ASUS45 KBOI 240310
RWRID

IDAHO REGIONAL WEATHER ROUNDUP
NATIONAL WEATHER SERVICE BOISE ID
900 PM MDT MON OCT 23 2017

NOTE: "FAIR" INDICATES FEW OR NO CLOUDS BELOW 12000 FEET
WITH NO SIGNIFICANT WEATHER AND/OR OBSTRUCTIONS TO VISIBILITY

IDZ012-014-240400-
SOUTHWEST IDAHO


CITY           SKY/WX    TMP DP  RH WIND       PRES   REMARKS
BOISE          PTCLDY    50  37  61 CALM      30.66S
CALDWELL       PTCLDY    48  38  68 CALM      30.67S
MOUNTAIN HOME  CLEAR     45  36  70 W9        30.65R
$$

IDZ016-017-240400-
SOUTHCENTRAL IDAHO


CITY           SKY/WX    TMP DP  RH WIND       PRES   REMARKS
BURLEY         CLEAR     40  33  76 S6        30.65S
JEROME         CLEAR     46  36  68 S6        30.66R
TWIN FALLS     CLEAR     43  38  82 S10       30.67R
$$

IDZ019>023-240400-
SOUTHEAST IDAHO


CITY           SKY/WX    TMP DP  RH WIND       PRES   REMARKS
IDAHO FALLS    CLOUDY    44  35  70 S5        30.67R
POCATELLO      CLOUDY    46  33  60 S10       30.66S
REXBURG        CLOUDY    43  31  62 SE5       30.66R
$$

IDZ006-010-011-018-031-032-240400-
CENTRAL IDAHO MOUNTAINS


CITY           SKY/WX    TMP DP  RH WIND       PRES   REMARKS
MCCALL         CLEAR     41  32  70 N5        30.69R
HAILEY         CLEAR     41  30  65 NW5       30.69R
STANLEY          N/A     31  25  78 S5        30.73R WCI  26
SALMON         CLOUDY    37  29  72 CALM      30.70R
CHALLIS        PTCLDY    41  20  43 CALM      30.68R
$$

IDZ002-004-006-007-026-240400-
NORTHERN IDAHO


CITY           SKY/WX    TMP DP  RH WIND       PRES   REMARKS
LEWISTON       CLEAR     50  41  71 S5        30.69R
LOWELL           N/A     44  43  96 CALM      30.76R
COEUR D`ALENE  MOCLDY    43  39  86 CALM      30.72R
MULLAN PASS    CLEAR     34  29  82 SW3       30.70R
$$




USA.gov is the U.S. government's official web portal to all federal, state and local government web resources and services.